TimeEET,TemperatureF,Dew PointF,Humidity,Sea Level PressureIn,VisibilityMPH,Wind Direction,Wind SpeedMPH,Gust SpeedMPH,PrecipitationIn,Events,Conditions,WindDirDegrees,DateUTC
5:20 AM,51.8,42.8,71,30.01,6.2,NE,17.3,-,N/A,Rain,Light Rain,40,2012-12-29 03:20:00
5:50 AM,51.8,44.6,76,30.04,6.2,NE,19.6,-,N/A,,Mostly Cloudy,50,2012-12-29 03:50:00
6:20 AM,51.8,44.6,76,30.04,6.2,NE,19.6,-,N/A,,Mostly Cloudy,50,2012-12-29 04:20:00
6:50 AM,51.8,42.8,71,30.04,6.2,ENE,20.7,-,N/A,,Mostly Cloudy,60,2012-12-29 04:50:00
7:20 AM,51.8,42.8,71,30.04,6.2,ENE,24.2,-,N/A,,Mostly Cloudy,60,2012-12-29 05:20:00
7:50 AM,50.0,41.0,71,30.06,6.2,ENE,28.8,-,N/A,,Mostly Cloudy,60,2012-12-29 05:50:00
8:20 AM,50.0,41.0,71,30.06,6.2,ENE,28.8,-,N/A,,Mostly Cloudy,60,2012-12-29 06:20:00
8:50 AM,48.2,39.2,71,30.06,6.2,ENE,25.3,-,N/A,,Mostly Cloudy,60,2012-12-29 06:50:00
9:20 AM,48.2,39.2,71,30.09,6.2,ENE,25.3,-,N/A,,Mostly Cloudy,60,2012-12-29 07:20:00
9:50 AM,48.2,39.2,71,30.09,6.2,ENE,25.3,-,N/A,,Mostly Cloudy,60,2012-12-29 07:50:00
10:20 AM,50.0,39.2,66,30.12,6.2,ENE,25.3,-,N/A,,Mostly Cloudy,60,2012-12-29 08:20:00
10:50 AM,50.0,37.4,62,30.12,6.2,ENE,24.2,-,N/A,,Overcast,60,2012-12-29 08:50:00
11:20 AM,50.0,37.4,62,30.15,6.2,ENE,26.5,-,N/A,,Overcast,60,2012-12-29 09:20:00
11:50 AM,50.0,37.4,62,30.15,6.2,ENE,28.8,-,N/A,,Drizzle,60,2012-12-29 09:50:00
12:20 PM,50.0,37.4,62,30.15,6.2,ENE,28.8,-,N/A,,Mostly Cloudy,60,2012-12-29 10:20:00
12:50 PM,50.0,37.4,62,30.15,6.2,ENE,29.9,-,N/A,,Mostly Cloudy,60,2012-12-29 10:50:00
1:20 PM,50.0,37.4,62,30.15,6.2,ENE,29.9,-,N/A,,Mostly Cloudy,60,2012-12-29 11:20:00
1:50 PM,48.2,35.6,62,30.15,6.2,ENE,27.6,-,N/A,,Mostly Cloudy,70,2012-12-29 11:50:00
2:20 PM,48.2,35.6,62,30.15,6.2,ENE,26.5,-,N/A,,Mostly Cloudy,70,2012-12-29 12:20:00
2:50 PM,48.2,35.6,62,30.15,6.2,ENE,25.3,-,N/A,,Mostly Cloudy,70,2012-12-29 12:50:00
3:20 PM,48.2,35.6,62,30.15,6.2,ENE,25.3,-,N/A,,Mostly Cloudy,70,2012-12-29 13:20:00
3:50 PM,48.2,35.6,62,30.15,6.2,ENE,23.0,-,N/A,,Mostly Cloudy,70,2012-12-29 13:50:00
4:20 PM,48.2,35.6,62,30.18,6.2,ENE,27.6,-,N/A,,Mostly Cloudy,70,2012-12-29 14:20:00
4:50 PM,48.2,35.6,62,30.18,6.2,ENE,25.3,-,N/A,,Mostly Cloudy,70,2012-12-29 14:50:00
5:20 PM,48.2,35.6,62,30.18,6.2,ENE,25.3,-,N/A,,Mostly Cloudy,60,2012-12-29 15:20:00
5:50 PM,46.4,35.6,66,30.18,6.2,ENE,25.3,-,N/A,,Mostly Cloudy,60,2012-12-29 15:50:00
6:20 PM,46.4,35.6,66,30.18,6.2,ENE,25.3,-,N/A,,Mostly Cloudy,70,2012-12-29 16:20:00
6:50 PM,46.4,33.8,62,30.21,6.2,ENE,25.3,-,N/A,,Mostly Cloudy,70,2012-12-29 16:50:00
7:20 PM,46.4,33.8,62,30.21,6.2,ENE,23.0,-,N/A,,Mostly Cloudy,70,2012-12-29 17:20:00
7:50 PM,44.6,33.8,66,30.24,6.2,ENE,23.0,-,N/A,,Overcast,70,2012-12-29 17:50:00